EW3012 Weather Reports


time (UTC)temp
F
wind
direction
speed
knots
gust
knots
rain 1hr
in
rain 24hr
in
rain mn
in
humidity
%
barometer
mb
20260906040011 58 257 0.0 0.0 0.00 0.00 0.00 35 1018.4
20260906035504 58 257 0.0 0.0 0.00 0.00 0.00 35 1018.4
20260906035008 58 258 0.0 0.0 0.00 0.00 0.00 35 1018.3
20260906034506 58 255 0.0 0.0 0.00 0.00 0.00 35 1018.2
20260906034352 57 252 0.0 0.0 0.00 0.00 0.00 36 1018.1
20260906034157 57 252 0.0 0.0 0.00 0.00 0.00 36 1018.0
20260906033008 57 314 0.0 0.0 0.00 0.00 0.00 36 1018.0
20260906032506 57 314 0.0 0.0 0.00 0.00 0.00 36 1017.9
20260906032005 57 309 0.0 0.0 0.00 0.00 0.00 36 1018.0
20260906031505 57 313 0.0 0.0 0.00 0.00 0.00 36 1017.9
20260906031005 57 313 0.0 0.0 0.00 0.00 0.00 36 1017.9
20260906030506 58 313 0.0 0.0 0.00 0.00 0.00 36 1017.8
20260906030007 58 313 0.0 0.0 0.00 0.00 0.00 36 1017.8
20260906025506 58 314 0.0 0.0 0.00 0.00 0.00 36 1017.6
20260906025006 58 69 0.0 0.0 0.00 0.00 0.00 37 1017.6
20260906024917 58 66 0.0 0.0 0.00 0.00 0.00 37 1017.4
20260906024006 58 271 0.0 0.0 0.00 0.00 0.00 37 1017.4
20260906023507 58 269 0.0 0.0 0.00 0.00 0.00 37 1017.2
20260906023005 58 269 0.0 0.0 0.00 0.00 0.00 37 1017.1
20260906022505 58 269 0.0 0.0 0.00 0.00 0.00 37 1017.2
20260906022006 58 269 0.0 0.0 0.00 0.00 0.00 37 1017.2
20260906021505 59 271 0.0 0.0 0.00 0.00 0.00 37 1017.1
20260906021006 59 269 0.0 0.0 0.00 0.00 0.00 37 1017.1
20260906020504 59 271 0.0 0.0 0.00 0.00 0.00 37 1016.9
20260906020412 59 269 0.0 0.0 0.00 0.00 0.00 36 1016.8
20260906015504 59 271 0.0 0.0 0.00 0.00 0.00 36 1016.7
20260906015004 60 271 0.0 0.0 0.00 0.00 0.00 36 1016.6
20260906014504 60 268 0.0 0.0 0.00 0.00 0.00 36 1016.7
20260906014418 60 234 0.0 0.9 0.00 0.00 0.00 37 1016.5
20260906013506 60 234 0.0 0.9 0.00 0.00 0.00 37 1016.5
20260906013006 60 45 0.0 0.0 0.00 0.00 0.00 37 1016.6
20260906012505 60 45 0.0 0.0 0.00 0.00 0.00 38 1016.6
20260906012334 60 45 0.0 0.0 0.00 0.00 0.00 37 1016.4
20260906012146 60 45 0.0 0.0 0.00 0.00 0.00 38 1016.5
20260906011002 60 45 0.0 0.0 0.00 0.00 0.00 38 1016.3
20260906010503 60 45 0.0 0.0 0.00 0.00 0.00 38 1016.3
20260906010005 61 45 0.0 0.0 0.00 0.00 0.00 37 1016.3
20260906005503 61 45 0.0 0.0 0.00 0.00 0.00 37 1016.2
20260906005003 61 45 0.0 0.0 0.00 0.00 0.00 37 1016.3
20260906004501 61 55 0.0 0.0 0.00 0.00 0.00 37 1016.3
20260906004001 61 55 0.0 0.0 0.00 0.00 0.00 36 1016.3
20260906003914 61 55 0.0 0.0 0.00 0.00 0.00 36 1016.2
20260906003002 61 285 0.0 0.0 0.00 0.00 0.00 36 1016.3
20260906002504 61 285 0.0 0.0 0.00 0.00 0.00 36 1016.3
20260906002003 61 283 0.0 0.0 0.00 0.00 0.00 36 1016.1
20260906001858 61 283 0.0 0.0 0.00 0.00 0.00 36 1015.9
20260906001700 61 285 0.0 0.0 0.00 0.00 0.00 36 1016.0
20260906000502 61 283 0.0 0.0 0.00 0.00 0.00 37 1015.9
20260906000000 61 166 0.0 0.0 0.00 0.00 0.00 37 1015.9
20260905235502 61 166 0.0 0.0 0.00 0.00 0.00 37 1016.0
20260905235001 61 166 0.0 0.0 0.00 0.00 0.00 37 1015.9
20260905234500 62 166 0.0 0.0 0.00 0.00 0.00 37 1015.9
20260905234000 62 166 0.0 0.0 0.00 0.00 0.00 38 1015.9
20260905233500 62 166 0.0 0.0 0.00 0.00 0.00 38 1015.8
20260905233002 62 166 0.0 0.0 0.00 0.00 0.00 38 1015.9
20260905232459 62 166 0.0 0.0 0.00 0.00 0.00 38 1016.0
20260905232001 62 166 0.0 0.0 0.00 0.00 0.00 38 1016.0
20260905231459 62 166 0.0 0.0 0.00 0.00 0.00 38 1015.9
20260905231415 62 166 0.0 0.0 0.00 0.00 0.00 38 1015.9
20260905230501 62 166 0.0 0.0 0.00 0.00 0.00 38 1016.0
20260905230359 62 166 0.0 0.0 0.00 0.00 0.00 38 1015.9
20260905225500 63 166 0.0 0.0 0.00 0.00 0.00 38 1015.9
20260905225001 63 166 0.0 0.0 0.00 0.00 0.00 38 1015.7
20260905224459 63 190 0.0 0.0 0.00 0.00 0.00 38 1015.7
20260905224420 63 197 0.0 0.0 0.00 0.00 0.00 38 1015.6
20260905223912 62 196 0.0 0.0 0.00 0.00 0.00 39 1015.7
20260905222959 63 196 0.0 0.0 0.00 0.00 0.00 39 1015.8
20260905222909 63 196 0.0 0.0 0.00 0.00 0.00 39 1015.9
20260905221958 63 196 0.0 0.0 0.00 0.00 0.00 39 1015.8
20260905221912 63 196 0.0 0.0 0.00 0.00 0.00 39 1015.8
20260905220958 63 196 0.0 0.0 0.00 0.00 0.00 39 1015.9
20260905220458 63 196 0.0 0.0 0.00 0.00 0.00 40 1015.9
20260905215959 63 196 0.0 0.0 0.00 0.00 0.00 40 1016.0
20260905215459 63 196 0.0 0.0 0.00 0.00 0.00 41 1016.0
20260905214959 63 196 0.0 0.0 0.00 0.00 0.00 41 1016.0
20260905214458 63 196 0.0 0.0 0.00 0.00 0.00 41 1016.0
20260905213957 63 196 0.0 0.0 0.00 0.00 0.00 42 1016.0
20260905213458 63 196 0.0 0.0 0.00 0.00 0.00 42 1015.9
20260905212957 63 196 0.0 0.0 0.00 0.00 0.00 42 1015.9
20260905212502 63 196 0.0 0.0 0.00 0.00 0.00 42 1016.0
20260905211956 63 196 0.0 0.0 0.00 0.00 0.00 43 1016.0
20260905211921 63 196 0.0 0.0 0.00 0.00 0.00 43 1015.9
20260905211415 63 196 0.0 0.0 0.00 0.00 0.00 43 1015.9
20260905210458 63 196 0.0 0.0 0.00 0.00 0.00 43 1015.9
20260905205958 63 259 0.0 0.0 0.00 0.00 0.00 44 1016.0
20260905205456 63 259 0.0 0.0 0.00 0.00 0.00 44 1015.9
20260905204958 63 259 0.0 0.0 0.00 0.00 0.00 45 1015.9
20260905204456 63 258 0.0 0.0 0.00 0.00 0.00 45 1015.9
20260905204001 63 259 0.0 0.0 0.00 0.00 0.00 46 1015.8
20260905203456 63 259 0.0 0.0 0.00 0.00 0.00 47 1015.9
20260905202956 63 258 0.0 0.0 0.00 0.00 0.00 47 1015.8
20260905202455 63 259 0.0 0.0 0.00 0.00 0.00 48 1015.8
20260905201956 63 258 0.0 0.0 0.00 0.00 0.00 48 1015.8
20260905201456 63 259 0.0 0.0 0.00 0.00 0.00 49 1015.7
20260905201422 63 258 0.0 0.0 0.00 0.00 0.00 50 1015.7
20260905200456 63 259 0.0 0.0 0.00 0.00 0.00 51 1015.7
20260905195956 63 259 0.0 0.0 0.00 0.00 0.00 51 1015.6
20260905195457 63 259 0.0 0.0 0.00 0.00 0.00 51 1015.6
20260905194955 63 257 0.0 0.0 0.00 0.00 0.00 52 1015.5
20260905194457 64 247 0.0 0.0 0.00 0.00 0.00 54 1015.6
20260905193956 64 261 0.0 0.0 0.00 0.00 0.00 56 1015.5
20260905193455 64 261 0.0 0.0 0.00 0.00 0.00 55 1015.6
20260905192954 64 261 0.0 0.0 0.00 0.00 0.00 55 1015.5
20260905192454 65 261 0.0 0.9 0.00 0.00 0.00 54 1015.5
20260905191955 65 259 0.0 4.3 0.00 0.00 0.00 52 1015.5
20260905191454 64 283 0.0 4.3 0.00 0.00 0.00 50 1015.6
20260905190956 64 283 0.0 0.0 0.00 0.00 0.00 51 1015.4
20260905190917 64 254 0.0 0.0 0.00 0.00 0.00 56 1015.4
20260905185955 64 254 0.0 0.0 0.00 0.00 0.00 58 1015.3
20260905185911 64 254 0.0 0.0 0.00 0.00 0.00 58 1015.4
20260905184954 64 254 0.0 0.0 0.00 0.00 0.00 59 1015.5
20260905184454 64 252 0.0 0.0 0.00 0.00 0.00 61 1015.5
20260905183954 65 254 0.0 0.0 0.00 0.00 0.00 63 1015.4
20260905183455 65 254 0.0 0.0 0.00 0.00 0.00 65 1015.6
20260905182954 66 254 0.0 0.0 0.00 0.00 0.00 66 1015.5
20260905182454 66 254 0.0 0.0 0.00 0.00 0.00 67 1015.5
20260905182403 67 252 0.0 0.0 0.00 0.00 0.00 67 1015.4
20260905181454 67 254 0.0 0.0 0.00 0.00 0.00 67 1015.4
20260905181406 67 272 0.0 0.9 0.00 0.00 0.00 66 1015.4
20260905180452 66 258 0.0 0.9 0.00 0.00 0.00 63 1015.3
20260905180355 65 274 0.0 0.0 0.00 0.00 0.00 62 1015.3
20260905175455 65 250 0.0 0.0 0.00 0.00 0.00 64 1015.2
20260905174953 66 250 0.0 0.0 0.00 0.00 0.00 65 1015.2
20260905174454 66 250 0.0 0.0 0.00 0.00 0.00 66 1015.2
20260905173957 66 250 0.0 0.0 0.00 0.00 0.00 67 1015.2
20260905173451 67 250 0.0 0.0 0.00 0.00 0.00 68 1015.2
20260905172952 67 250 0.0 0.0 0.00 0.00 0.00 69 1015.2
20260905172451 67 250 0.0 0.0 0.00 0.00 0.00 70 1015.2
20260905171951 68 248 0.0 0.0 0.00 0.00 0.00 71 1015.2
20260905171454 68 250 0.0 0.0 0.00 0.00 0.00 72 1015.1
20260905170951 69 247 0.0 0.0 0.00 0.00 0.00 72 1015.2
20260905170453 69 248 0.0 0.0 0.00 0.00 0.00 73 1015.0
20260905165952 70 248 0.0 0.0 0.00 0.00 0.00 73 1015.0
20260905165453 71 248 0.0 0.0 0.00 0.00 0.00 73 1015.0
20260905164951 72 248 0.0 0.0 0.00 0.00 0.00 74 1015.0
20260905164453 73 247 0.0 0.0 0.00 0.00 0.00 73 1015.0
20260905163951 74 247 0.0 0.0 0.00 0.00 0.00 73 1015.0
20260905163453 75 248 0.0 0.0 0.00 0.00 0.00 73 1015.0
20260905162952 76 248 0.0 0.0 0.00 0.00 0.00 72 1015.0
20260905162904 77 248 0.0 0.0 0.00 0.00 0.00 71 1015.0
20260905162408 79 248 0.0 0.0 0.00 0.00 0.00 69 1014.9
20260905161450 80 248 0.0 0.0 0.00 0.00 0.00 68 1014.8
20260905160951 82 248 0.0 0.0 0.00 0.00 0.00 66 1014.8
20260905160449 82 248 0.0 0.0 0.00 0.00 0.00 67 1014.7
20260905155949 83 248 0.0 0.0 0.00 0.00 0.00 65 1014.8
20260905155907 84 248 0.0 0.0 0.00 0.00 0.00 63 1014.5
20260905154949 85 248 0.0 0.0 0.00 0.00 0.00 62 1014.5
20260905154908 86 248 0.0 0.0 0.00 0.00 0.00 61 1014.5
20260905153949 86 248 0.0 0.0 0.00 0.00 0.00 59 1014.7
20260905153451 86 248 0.0 0.0 0.00 0.00 0.00 60 1014.7
20260905152950 85 248 0.0 0.0 0.00 0.00 0.00 54 1014.5
20260905152451 85 243 0.0 0.0 0.00 0.00 0.00 54 1014.5
20260905151948 85 226 0.0 0.0 0.00 0.00 0.00 51 1014.5
20260905151450 85 252 0.0 0.0 0.00 0.00 0.00 50 1014.5
20260905150950 86 166 0.0 0.0 0.00 0.00 0.00 51 1014.7
20260905150451 86 238 0.0 0.0 0.00 0.00 0.00 51 1014.8
20260905145949 86 237 0.0 0.0 0.00 0.00 0.00 50 1014.9
20260905145451 86 135 0.0 0.9 0.00 0.00 0.00 51 1014.8
20260905145400 86 265 0.0 3.5 0.00 0.00 0.00 51 1014.9
20260905144448 86 258 0.0 3.5 0.00 0.00 0.00 51 1014.8
20260905143948 87 276 0.0 0.0 0.00 0.00 0.00 52 1014.9
20260905143448 87 254 0.0 1.7 0.00 0.00 0.00 51 1014.9
20260905142947 87 244 0.0 1.7 0.00 0.00 0.00 51 1014.9
20260905142447 87 247 0.0 0.9 0.00 0.00 0.00 51 1014.9
20260905141947 86 221 0.0 1.7 0.00 0.00 0.00 51 1014.9
20260905141447 86 157 0.0 1.7 0.00 0.00 0.00 51 1015.0
20260905140947 86 234 0.0 0.9 0.00 0.00 0.00 49 1015.0
20260905140449 86 214 0.0 3.5 0.00 0.00 0.00 51 1015.0
20260905135946 86 243 0.0 3.5 0.00 0.00 0.00 49 1015.0
20260905135451 86 245 0.0 3.5 0.00 0.00 0.00 52 1015.1
20260905135404 86 275 0.0 3.5 0.00 0.00 0.00 50 1015.2
20260905134446 86 162 0.0 6.1 0.00 0.00 0.00 50 1015.2
20260905133946 85 244 0.9 6.1 0.00 0.00 0.00 49 1015.1
20260905133446 85 271 0.0 0.9 0.00 0.00 0.00 50 1015.2
20260905132948 85 275 0.0 5.2 0.00 0.00 0.00 49 1015.3
20260905132448 85 255 0.0 5.2 0.00 0.00 0.00 47 1015.3
20260905132406 86 243 0.0 2.6 0.00 0.00 0.00 48 1015.4
20260905131446 86 206 0.0 2.6 0.00 0.00 0.00 47 1015.4
20260905130949 86 262 0.0 2.6 0.00 0.00 0.00 48 1015.4
20260905130447 86 237 0.0 2.6 0.00 0.00 0.00 46 1015.5
20260905130349 87 250 0.9 2.6 0.00 0.00 0.00 45 1015.6
20260905125445 87 235 0.0 2.6 0.00 0.00 0.00 50 1015.6
20260905124947 87 149 0.0 5.2 0.00 0.00 0.00 46 1015.6
20260905124448 87 186 0.0 5.2 0.00 0.00 0.00 46 1015.6
20260905123948 87 113 0.0 2.6 0.00 0.00 0.00 45 1015.7
20260905123859 87 244 0.0 2.6 0.00 0.00 0.00 44 1015.8
20260905122946 87 228 0.0 2.6 0.00 0.00 0.00 47 1015.9
20260905122859 87 154 0.0 2.6 0.00 0.00 0.00 46 1015.9
20260905121945 87 151 0.0 3.5 0.00 0.00 0.00 46 1016.0
20260905121445 86 140 0.0 5.2 0.00 0.00 0.00 46 1016.1
20260905121323 86 247 0.0 2.6 0.00 0.00 0.00 47 1016.2
20260905121130 87 244 1.7 5.2 0.00 0.00 0.00 45 1016.2
20260905120633 87 176 0.0 2.6 0.00 0.00 0.00 47 1016.1
20260905115853 86 266 0.0 2.6 0.00 0.00 0.00 46 1016.2
20260905114940 86 140 0.0 0.9 0.00 0.00 0.00 48 1016.2
20260905114435 86 166 0.0 1.7 0.00 0.00 0.00 46 1016.3
20260905113935 85 123 0.0 4.3 0.00 0.00 0.00 50 1016.2
20260905113432 85 255 0.0 4.3 0.00 0.00 0.00 49 1016.3
20260905112931 85 142 0.9 6.1 0.00 0.00 0.00 47 1016.4
20260905112850 85 138 1.7 6.1 0.00 0.00 0.00 47 1016.4
20260905111931 85 265 0.0 4.3 0.00 0.00 0.00 47 1016.4
20260905111847 85 252 0.0 4.3 0.00 0.00 0.00 47 1016.5
20260905110931 85 186 1.7 4.3 0.00 0.00 0.00 48 1016.5
20260905110432 85 265 1.7 6.1 0.00 0.00 0.00 45 1016.5
20260905110254 86 168 0.9 4.3 0.00 0.00 0.00 46 1016.7
20260905110243 86 189 0.0 3.5 0.00 0.00 0.00 46 1016.7
20260905104433 86 275 0.9 4.3 0.00 0.00 0.00 48 1016.8
20260905103932 86 250 0.9 4.3 0.00 0.00 0.00 45 1016.7
20260905103431 86 151 0.9 5.2 0.00 0.00 0.00 49 1016.7
20260905102936 86 219 2.6 5.2 0.00 0.00 0.00 48 1016.8
20260905102432 87 289 0.0 3.5 0.00 0.00 0.00 45 1016.8
20260905101931 87 186 0.0 3.5 0.00 0.00 0.00 48 1016.9
20260905101843 87 158 1.7 2.6 0.00 0.00 0.00 47 1016.9
20260905100928 86 223 0.9 2.6 0.00 0.00 0.00 51 1016.9
20260905100430 86 266 0.9 1.7 0.00 0.00 0.00 50 1016.9
20260905100342 86 138 0.0 5.2 0.00 0.00 0.00 50 1016.8
20260905095427 85 166 1.7 5.2 0.00 0.00 0.00 52 1016.9
20260905094926 84 254 0.0 3.5 0.00 0.00 0.00 51 1016.8
20260905094427 84 142 1.7 3.5 0.00 0.00 0.00 52 1016.9
20260905093925 84 245 1.7 3.5 0.00 0.00 0.00 52 1016.9
20260905093424 83 235 0.9 4.3 0.00 0.00 0.00 52 1016.9
20260905093334 83 224 0.9 5.2 0.00 0.00 0.00 52 1016.9
20260905092422 84 135 1.7 5.2 0.00 0.00 0.00 53 1016.9
20260905091924 83 155 1.7 4.3 0.00 0.00 0.00 55 1017.0
20260905091418 83 145 0.0 2.6 0.00 0.00 0.00 56 1017.0
20260905090916 83 86 0.9 2.6 0.00 0.00 0.00 52 1017.0
20260905090418 83 276 1.7 3.5 0.00 0.00 0.00 53 1017.0
20260905085916 83 257 1.7 3.5 0.00 0.00 0.00 54 1017.1
20260905085414 84 216 0.9 1.7 0.00 0.00 0.00 54 1017.0
20260905084913 83 161 0.9 1.7 0.00 0.00 0.00 56 1017.0
20260905084414 82 137 0.9 3.5 0.00 0.00 0.00 55 1017.1
20260905083912 82 141 0.9 3.5 0.00 0.00 0.00 56 1017.1
20260905083405 82 142 0.9 3.5 0.00 0.00 0.00 58 1017.2
20260905082906 82 172 0.9 2.6 0.00 0.00 0.00 59 1017.1
20260905082404 81 164 0.9 4.3 0.00 0.00 0.00 60 1017.2
20260905081903 81 176 1.7 4.3 0.00 0.00 0.00 59 1017.1
20260905081813 81 87 0.0 3.5 0.00 0.00 0.00 61 1017.2
20260905080903 81 123 0.9 3.5 0.00 0.00 0.00 60 1017.1
20260905080405 82 125 1.7 2.6 0.00 0.00 0.00 59 1017.1
20260905075904 81 166 0.0 1.7 0.00 0.00 0.00 61 1017.1
20260905075406 81 131 0.9 1.7 0.00 0.00 0.00 62 1017.2
20260905074903 80 133 0.0 1.7 0.00 0.00 0.00 63 1017.1
20260905074405 80 131 0.0 1.7 0.00 0.00 0.00 63 1017.2
20260905073903 80 73 0.0 1.7 0.00 0.00 0.00 63 1017.1
20260905073403 80 125 0.0 1.7 0.00 0.00 0.00 66 1017.2
20260905073317 80 147 0.0 0.0 0.00 0.00 0.00 65 1017.2
20260905072405 80 155 0.0 0.0 0.00 0.00 0.00 65 1017.1
20260905072322 80 123 0.0 0.0 0.00 0.00 0.00 67 1017.1
20260905071402 79 125 0.0 0.0 0.00 0.00 0.00 68 1017.1
20260905071326 79 134 0.0 0.0 0.00 0.00 0.00 69 1017.2
20260905070402 78 134 0.0 0.0 0.00 0.00 0.00 70 1017.4
20260905065903 78 190 0.0 0.0 0.00 0.00 0.00 69 1017.4
20260905065402 77 237 0.0 0.0 0.00 0.00 0.00 71 1017.4
20260905065313 76 244 0.0 0.0 0.00 0.00 0.00 73 1017.2
20260905064403 75 244 0.0 0.0 0.00 0.00 0.00 74 1017.2
20260905063903 74 244 0.0 0.0 0.00 0.00 0.00 74 1017.2
20260905063403 73 244 0.0 0.0 0.00 0.00 0.00 74 1017.4
20260905063320 72 244 0.0 0.0 0.00 0.00 0.00 74 1017.2
20260905062404 72 250 0.0 0.0 0.00 0.00 0.00 74 1017.1
20260905062243 71 250 0.0 0.0 0.00 0.00 0.00 74 1017.2
20260905062049 71 250 0.0 0.0 0.00 0.00 0.00 74 1017.2
20260905060905 69 251 0.0 0.0 0.00 0.00 0.00 71 1017.2
20260905060820 68 251 0.0 0.0 0.00 0.00 0.00 70 1017.2
20260905055904 66 204 0.0 0.0 0.00 0.00 0.00 69 1017.2
20260905055402 66 237 0.0 0.0 0.00 0.01 0.00 69 1017.2
20260905054904 66 241 0.0 0.0 0.00 0.01 0.00 67 1017.1
20260905054752 65 281 0.0 0.0 0.00 0.01 0.00 55 1017.2
20260905054552 65 3 0.0 0.0 0.00 0.01 0.00 60 1017.1
20260905053402 64 281 0.0 0.0 0.00 0.01 0.00 49 1017.2
20260905052859 63 281 0.0 0.0 0.00 0.01 0.00 47 1017.2
20260905052357 62 281 0.0 0.0 0.00 0.01 0.00 44 1017.1
20260905052320 61 281 0.0 0.0 0.00 0.01 0.00 43 1017.1
20260905051357 60 238 0.0 0.0 0.00 0.01 0.00 40 1017.2
20260905050855 59 195 0.0 0.0 0.00 0.01 0.00 39 1017.0
20260905050356 58 195 0.0 0.0 0.00 0.01 0.00 39 1017.0
20260905045855 58 252 0.0 0.0 0.00 0.01 0.00 39 1016.9
20260905045353 57 252 0.0 0.9 0.00 0.01 0.00 40 1016.9
20260905044854 56 252 0.0 4.3 0.00 0.01 0.00 40 1016.9
20260905044355 55 252 0.9 4.3 0.00 0.01 0.00 40 1016.9
20260905044303 54 252 0.0 0.0 0.00 0.01 0.00 41 1016.9
20260905043349 54 264 0.0 0.0 0.00 0.01 0.00 41 1017.0
20260905043302 54 262 0.0 0.0 0.00 0.01 0.00 42 1016.9
20260905042349 54 264 0.0 0.0 0.00 0.01 0.00 42 1016.7
20260905041845 54 264 0.0 0.0 0.00 0.01 0.00 42 1016.7
20260905041758 54 251 0.0 0.0 0.00 0.01 0.00 42 1016.7
20260905041249 54 257 0.0 0.0 0.00 0.01 0.00 42 1016.7
20260905040339 54 257 0.0 0.0 0.00 0.01 0.00 42 1016.7